SQ2CET-13 Weather Reports


time (UTC)temp
C
wind
direction
speed
KPH
gust
KPH
rain 1hr
cm
rain 24hr
cm
rain mn
cm
humidity
%
barometer
mb
20260502164027 23 275 1.6 6.4 0.00 0.00 0.00 33 1019.0
20260502163044 23 181 3.2 6.4 0.00 0.00 0.00 33 1018.9
20260502162128 23 270 1.6 6.4 0.00 0.00 0.00 32 1019.1
20260502161107 23 326 1.6 4.8 0.00 0.00 0.00 32 1019.3
20260502152051 23 326 3.2 8.0 0.00 0.00 0.00 31 1020.2
20260502151118 23 163 3.2 6.4 0.00 0.00 0.00 31 1020.3
20260502123050 25 236 11.3 20.9 0.00 0.00 0.00 24 1021.6
20260502122114 26 247 12.9 24.1 0.00 0.00 0.00 24 1021.9
20260502121056 25 235 6.4 20.9 0.00 0.00 0.00 24 1022.0
20260502115018 25 222 9.7 17.7 0.00 0.00 0.00 25 1022.2
20260502114042 25 243 4.8 16.1 0.00 0.00 0.00 25 1022.3
20260502113059 25 223 8.0 16.1 0.00 0.00 0.00 26 1022.5
20260502112020 25 237 8.0 22.5 0.00 0.00 0.00 26 1022.6
20260502111103 26 230 6.4 14.5 0.00 0.00 0.00 25 1022.8
20260502110108 25 205 3.2 14.5 0.00 0.00 0.00 26 1022.7
20260502105028 26 237 1.6 6.4 0.00 0.00 0.00 25 1022.9
20260502104051 24 225 4.8 8.0 0.00 0.00 0.00 27 1023.0
20260502103115 23 258 6.4 12.9 0.00 0.00 0.00 28 1023.2
20260502102056 24 241 6.4 12.9 0.00 0.00 0.00 27 1023.3
20260502101059 23 232 4.8 14.5 0.00 0.00 0.00 27 1023.4
20260502091116 21 257 3.2 11.3 0.00 0.00 0.00 32 1024.0
20260502071040 16 236 3.2 8.0 0.00 0.00 0.00 45 1024.6
20260502070043 16 234 4.8 9.7 0.00 0.00 0.00 47 1024.9
20260502065128 16 237 4.8 12.9 0.00 0.00 0.00 49 1024.9
20260502064027 15 242 6.4 11.3 0.00 0.00 0.00 50 1024.8
20260502063051 15 235 6.4 11.3 0.00 0.00 0.00 52 1024.8
20260502062115 14 253 3.2 9.7 0.00 0.00 0.00 53 1024.9
20260502061035 13 231 6.4 12.9 0.00 0.00 0.00 55 1025.0
20260502060059 13 238 4.8 17.7 0.00 0.00 0.00 56 1025.0
20260502055020 13 233 4.8 16.1 0.00 0.00 0.00 56 1024.9
20260502054043 12 225 6.4 14.5 0.00 0.00 0.00 57 1025.0
20260502053108 12 230 6.4 11.3 0.00 0.00 0.00 58 1025.0
20260502052027 12 226 4.8 11.3 0.00 0.00 0.00 59 1025.0
20260502051051 11 213 3.2 9.7 0.00 0.00 0.00 60 1024.9
20260502050115 11 222 3.2 8.0 0.00 0.00 0.00 60 1025.0
20260502045035 10 219 3.2 8.0 0.00 0.00 0.00 61 1024.9
20260502044058 10 215 3.2 9.7 0.00 0.00 0.00 62 1025.0
20260502043039 10 225 3.2 6.4 0.00 0.00 0.00 62 1025.0
20260502042043 10 203 3.2 8.0 0.00 0.00 0.00 63 1024.9
20260502041106 9 226 3.2 8.0 0.00 0.00 0.00 63 1024.9
20260502040047 8 194 3.2 9.7 0.00 0.00 0.00 65 1024.8
20260502035050 8 200 4.8 11.3 0.00 0.00 0.00 66 1024.9
20260502034114 7 210 4.8 8.0 0.00 0.00 0.00 68 1025.0
20260502033035 7 206 4.8 8.0 0.00 0.00 0.00 68 1025.0
20260502032059 7 203 4.8 9.7 0.00 0.00 0.00 68 1024.9
20260502031019 7 223 4.8 8.0 0.00 0.00 0.00 68 1025.0
20260502030044 7 208 3.2 8.0 0.00 0.00 0.00 68 1025.0
20260502025128 7 213 3.2 8.0 0.00 0.00 0.00 67 1025.0
20260502024027 7 223 3.2 4.8 0.00 0.00 0.00 68 1025.1
20260502023051 7 215 4.8 8.0 0.00 0.00 0.00 67 1025.0
20260502022116 7 199 4.8 8.0 0.00 0.00 0.00 66 1025.0
20260502021034 7 224 4.8 6.4 0.00 0.00 0.00 66 1025.1
20260502020059 8 224 3.2 9.7 0.00 0.00 0.00 65 1025.1
20260502015018 8 214 4.8 11.3 0.00 0.00 0.00 64 1025.2
20260502014044 8 210 4.8 8.0 0.00 0.00 0.00 65 1025.2
20260502013106 8 204 4.8 8.0 0.00 0.00 0.00 65 1025.2
20260502012047 8 202 3.2 8.0 0.00 0.00 0.00 64 1025.2
20260502011050 8 206 3.2 6.4 0.00 0.00 0.00 64 1025.4
20260502010115 8 230 3.2 6.4 0.00 0.00 0.00 64 1025.3
20260502005035 8 212 3.2 4.8 0.00 0.00 0.00 63 1025.3
20260502004059 8 213 4.8 6.4 0.00 0.00 0.00 63 1025.2
20260502003019 9 224 1.6 4.8 0.00 0.00 0.00 62 1025.4
20260502002103 9 210 3.2 6.4 0.00 0.00 0.00 59 1025.4
20260502001108 10 213 3.2 6.4 0.00 0.00 0.00 59 1025.4
20260502000032 10 216 3.2 8.0 0.00 0.00 0.00 58 1025.5
20260501235051 10 203 1.6 8.0 0.00 0.00 0.00 57 1025.4
20260501234115 10 211 6.4 8.0 0.00 0.00 0.00 57 1025.5
20260501233035 10 216 4.8 9.7 0.00 0.00 0.00 56 1025.6
20260501232120 10 215 3.2 8.0 0.00 0.00 0.00 56 1025.5
20260501231019 10 213 6.4 9.7 0.00 0.00 0.00 56 1025.6
20260501230044 10 210 3.2 6.4 0.00 0.00 0.00 55 1025.7
20260501225107 10 215 4.8 9.7 0.00 0.00 0.00 54 1025.7
20260501224027 10 216 3.2 9.7 0.00 0.00 0.00 54 1025.7
20260501223051 11 217 4.8 9.7 0.00 0.00 0.00 53 1025.8
20260501222136 11 218 4.8 8.0 0.00 0.00 0.00 52 1025.7
20260501221034 11 222 4.8 9.7 0.00 0.00 0.00 52 1025.9
20260501220059 11 217 3.2 8.0 0.00 0.00 0.00 53 1026.0
20260501215019 11 211 3.2 8.0 0.00 0.00 0.00 54 1025.9
20260501214043 11 212 1.6 6.4 0.00 0.00 0.00 52 1026.0
20260501213107 12 211 3.2 6.4 0.00 0.00 0.00 50 1025.9
20260501212026 12 217 3.2 9.7 0.00 0.00 0.00 50 1026.1
20260501211051 12 223 4.8 9.7 0.00 0.00 0.00 51 1026.0
20260501210115 12 231 4.8 11.3 0.00 0.00 0.00 52 1026.0
20260501205035 12 221 4.8 12.9 0.00 0.00 0.00 52 1026.1
20260501204119 12 228 4.8 9.7 0.00 0.00 0.00 54 1026.2
20260501203020 12 226 4.8 11.3 0.00 0.00 0.00 54 1026.4
20260501202044 12 223 6.4 9.7 0.00 0.00 0.00 54 1026.2
20260501201107 12 225 4.8 9.7 0.00 0.00 0.00 52 1026.2
20260501200101 12 224 6.4 9.7 0.00 0.00 0.00 52 1026.2
20260501195044 12 217 3.2 6.4 0.00 0.00 0.00 52 1026.3
20260501194107 13 228 3.2 8.0 0.00 0.00 0.00 51 1026.4
20260501193028 13 229 6.4 9.7 0.00 0.00 0.00 49 1026.4
20260501192052 14 239 6.4 11.3 0.00 0.00 0.00 48 1026.2
20260501191116 14 234 6.4 11.3 0.00 0.00 0.00 46 1026.4
20260501190036 14 233 4.8 8.0 0.00 0.00 0.00 47 1026.3
20260501185059 15 240 4.8 6.4 0.00 0.00 0.00 47 1026.3
20260501184021 15 231 3.2 6.4 0.00 0.00 0.00 45 1026.3
20260501183043 15 245 3.2 4.8 0.00 0.00 0.00 44 1026.3
20260501182107 16 240 4.8 8.0 0.00 0.00 0.00 41 1026.3
20260501181028 17 243 4.8 9.7 0.00 0.00 0.00 39 1026.3
20260501180052 17 249 4.8 12.9 0.00 0.00 0.00 37 1026.2
20260501175137 18 244 6.4 11.3 0.00 0.00 0.00 35 1026.2
20260501174028 18 253 8.0 17.7 0.00 0.00 0.00 33 1026.2
20260501173052 18 259 6.4 19.3 0.00 0.00 0.00 32 1026.3
20260501172137 20 238 4.8 12.9 0.00 0.00 0.00 31 1026.1
20260501171035 20 248 6.4 14.5 0.00 0.00 0.00 30 1026.2
20260501170051 20 236 9.7 19.3 0.00 0.00 0.00 30 1026.2
20260501165115 21 251 6.4 14.5 0.00 0.00 0.00 31 1026.2